[[{"header":{"parameterUnit":"m.s-1","parameterCategory":1,"la1":30.2991,"la2":30.254,"lo1":-89.0895,"lo2":-89.0444,"dy":0.0017,"dx":0.0017,"nx":28,"ny":28,"refTime":"2023-07-22T21:00:00:Z","depth":0,"parameterNumber":2,"parameterNumberName":"U-component_of_WINDS"},"data":[0,0,0,0,0,0,0,0,0,0,0,0,0,0,0,0,0,0,0,0,0,0,0,0,0,0,0,0,0,0,0,0,0,0,0,0,0,0,0,0,0,0,0,0,0,0,0,0,0,0,0,0,0,0,0,0,0,0,2.026,2.0262,0,2.0431,2.0433,2.0435,2.0456,2.0454,2.0452,2.0451,2.0633,2.0639,2.0646,0,0,0,0,0,0,0,0,0,0,0,0,0,1.9961,1.9966,2.026,2.0262,2.0264,2.043,2.0433,2.0435,2.0456,2.0454,2.0452,2.045,2.0631,2.0639,2.0646,0,0,0,0,0,0,0,0,0,0,0,0,0,2.0107,1.9968,2.0259,2.0294,2.0299,2.043,2.0433,2.0436,2.0456,2.0454,2.0451,2.0449,2.0629,2.0638,2.0647,2.0757,0,0,2.0677,2.0681,0,0,0,0,0,0,0,0,2.0099,2.0118,2.0287,2.0292,2.0298,2.0419,2.0394,2.0544,2.0457,2.0397,2.0451,2.0448,2.0564,2.0579,2.0617,2.0766,2.0774,2.0678,2.0684,2.0688,2.069,0,0,0,0,0,0,0,2.0089,2.0111,2.0328,2.0289,2.0296,2.0305,2.0322,2.0423,2.0493,2.0402,2.0404,2.0423,2.0567,2.0608,2.0621,2.0777,2.0677,2.0686,2.0692,2.0696,2.103,2.1033,0,0,0,0,0,0,2.0071,2.0102,2.0322,2.0333,2.019,2.0312,2.0332,2.0383,2.0492,2.0506,2.0425,2.0424,2.0592,2.061,2.0628,2.0768,2.0688,2.0697,2.0702,2.1027,2.1031,2.1034,0,0,0,0,0,0,2.0064,2.009,2.0315,2.0218,2.0247,2.032,2.0377,2.0387,2.0428,2.0509,2.0523,2.0453,2.0591,2.0614,2.0726,2.0774,2.0701,2.071,2.1023,2.1028,2.1032,2.1045,0,0,0,0,0,0,2.0056,2.0088,2.0128,2.0219,2.0252,2.0407,2.0379,2.0393,2.0444,2.0443,2.0539,2.0553,2.0591,2.0711,2.0735,2.0786,2.0717,2.1019,2.1025,2.1031,2.1041,2.105,2.1057,0,0,0,0,0,2.0045,2.0125,2.013,2.0156,2.0304,2.041,2.0429,2.0469,2.0447,2.0491,2.0543,2.055,2.0764,2.0722,2.075,2.0804,2.1016,2.1024,2.103,2.1037,2.1048,2.1057,0,0,0,0,0,0,2.004,2.0138,2.0144,2.0255,2.0324,2.0413,2.0468,2.0479,2.0557,2.0553,2.0602,2.0624,2.0734,2.078,2.0731,2.0919,2.0889,2.0902,2.0885,2.0896,2.0904,2.0892,2.0725,0,0,0,0,0,2.0052,2.0127,2.0209,2.03,2.0334,2.0395,2.0443,2.0468,2.0542,2.0571,2.0632,2.0706,2.0791,2.0845,2.0927,2.1047,2.1071,2.1098,2.1107,2.1113,2.1124,2.1196,2.121,2.1057,2.1057,2.1057,0,0,2.0077,2.014,2.0185,2.0301,2.0357,2.0437,2.0419,2.0504,2.0566,2.0585,2.0694,2.0742,2.0828,2.0945,2.1,2.0987,2.1172,2.1122,2.1126,2.1134,2.1204,2.1219,2.1232,2.1061,2.1061,2.106,0,0,2.0165,2.0218,2.0301,2.0358,2.0443,2.0483,2.0503,2.0592,2.0623,2.0733,2.0751,2.0826,2.0969,2.1031,2.1081,2.1195,2.1206,2.1221,2.1265,2.1334,2.1346,2.1357,2.1402,2.1417,2.1231,2.1231,2.1231,0,2.0187,2.0306,2.0343,2.0429,2.0481,2.0501,2.0588,2.0642,2.075,2.0787,2.0771,2.0953,2.1012,2.1146,2.1174,2.1213,2.1241,2.1211,2.134,2.1352,2.1363,2.1406,2.1422,2.1233,2.1233,2.1232,2.1232,0,2.033,2.0413,2.047,2.0573,2.0632,2.0717,2.0772,2.0827,2.0848,2.0891,2.1005,2.1077,2.1175,2.1209,2.1229,2.1347,2.1337,2.133,2.1301,2.1378,2.142,2.1437,2.1235,2.1234,2.1234,2.1234,0,0,2.042,2.0543,2.0564,2.0612,2.0708,2.0775,2.0863,2.0957,2.1006,2.1081,2.1159,2.1281,2.1276,2.1333,2.1361,2.1421,2.1513,2.1408,2.1411,2.1428,2.1652,2.1659,2.1677,2.1519,2.1523,2.1525,2.1646,0,2.0522,2.0677,2.0715,2.0849,2.0929,2.0949,2.1027,2.1097,2.114,2.1217,2.1266,2.1353,2.1337,2.1373,2.1433,2.1488,2.1559,2.148,2.1597,2.1601,2.1577,2.1698,2.1705,2.1815,2.1662,2.1665,2.1667,0,2.066,2.0737,2.0879,2.0967,2.1002,2.1071,2.1163,2.1234,2.1315,2.1343,2.1407,2.143,2.1528,2.1492,2.163,2.1575,2.1626,2.1661,2.1666,2.1681,2.164,2.172,2.1851,2.1869,2.1692,2.169,2.1688,0,2.0716,2.0855,2.0958,2.0999,2.1104,2.1152,2.1199,2.1277,2.1332,2.1414,2.1451,2.1543,2.1594,2.1667,2.1716,2.1685,2.1851,2.1818,2.1881,2.188,2.1916,2.1914,2.2061,2.1943,2.1943,2.1943,2.1942,0,2.0827,2.0914,2.0985,2.1049,2.1149,2.1193,2.1292,2.1339,2.1409,2.1486,2.1509,2.1582,2.164,2.1722,2.1761,2.1872,2.1894,2.1922,2.1932,2.1922,2.1919,2.1958,2.1953,2.1947,2.1946,2.1945,2.1945,0,2.0907,2.0957,2.1073,2.1163,2.1188,2.1257,2.1336,2.1402,2.1446,2.1543,2.1569,2.164,2.1737,2.1793,2.1916,2.1942,2.2066,2.2071,2.2039,2.2044,2.2104,2.2099,2.2284,2.2312,2.2172,2.2173,2.2174,0,2.0976,2.1044,2.1141,2.1193,2.124,2.1323,2.138,2.1427,2.1486,2.1585,2.164,2.1738,2.1819,2.1975,2.204,2.2135,2.2145,2.2203,2.2159,2.2148,2.2151,2.2147,2.2156,2.2211,2.2213,2.2214,2.2214,0,2.1095,2.1117,2.1196,2.1286,2.1353,2.1426,2.1499,2.1541,2.1601,2.1667,2.1766,2.1829,2.1955,2.2054,2.2155,2.2207,2.2223,2.2227,2.2248,2.2239,2.2219,2.2235,2.2063,2.2223,2.2223,2.2222,2.2221,2.2221,2.1174,2.1237,2.1315,2.1405,2.1464,2.1532,2.1599,2.1652,2.1734,2.1839,2.1862,2.1968,2.2051,2.2188,2.2243,2.2329,2.2319,2.2347,2.2355,2.2362,2.2366,2.2203,2.2347,2.2347,2.2347,2.2346,2.2346,0,2.1298,2.1349,2.1431,2.1532,2.1603,2.1608,2.169,2.1751,2.1842,2.1917,2.1996,2.2113,2.221,2.2282,2.2382,2.2438,2.2448,2.2463,2.2461,2.2474,2.2367,2.2341,2.2453,2.2453,2.2453,2.2453,2.2453,2.2453,2.137,2.1477,2.1509,2.1647,2.17,2.1801,2.1848,2.1913,2.1973,2.2101,2.2181,2.2227,2.2303,2.2409,2.25,2.2519,2.2557,2.2571,2.2592,2.2492,2.2481,2.247,2.2446,2.2578,2.2578,2.2692,2.2694,2.2694]},{"header":{"parameterUnit":"m.s-1","parameterCategory":1,"la1":30.2991,"la2":30.254,"lo1":-89.0895,"lo2":-89.0444,"dy":0.0017,"dx":0.0017,"nx":28,"ny":28,"refTime":"2023-07-22T21:00:00:Z","depth":0,"parameterNumber":3,"parameterNumberName":"V-component_of_WINDS"},"data":[0,0,0,0,0,0,0,0,0,0,0,0,0,0,0,0,0,0,0,0,0,0,0,0,0,0,0,0,0,0,0,0,0,0,0,0,0,0,0,0,0,0,0,0,0,0,0,0,0,0,0,0,0,0,0,0,0,0,-2.4316,-2.4316,0,-2.4334,-2.4335,-2.4335,-2.4339,-2.4339,-2.4339,-2.4339,-2.4355,-2.4356,-2.4356,0,0,0,0,0,0,0,0,0,0,0,0,0,-2.4282,-2.4283,-2.4316,-2.4316,-2.4316,-2.4334,-2.4335,-2.4335,-2.4339,-2.4339,-2.4339,-2.4339,-2.4355,-2.4356,-2.4356,0,0,0,0,0,0,0,0,0,0,0,0,0,-2.4298,-2.4283,-2.4316,-2.4321,-2.4321,-2.4334,-2.4335,-2.4335,-2.4339,-2.4339,-2.4339,-2.4339,-2.4355,-2.4356,-2.4356,-2.4365,0,0,-2.4359,-2.4359,0,0,0,0,0,0,0,0,-2.4297,-2.4299,-2.432,-2.432,-2.4321,-2.4334,-2.4329,-2.4345,-2.4339,-2.4332,-2.4339,-2.4339,-2.4348,-2.435,-2.4353,-2.4366,-2.4366,-2.4359,-2.436,-2.436,-2.436,0,0,0,0,0,0,0,-2.4296,-2.4299,-2.4323,-2.432,-2.4321,-2.4321,-2.4323,-2.4332,-2.4341,-2.4333,-2.4333,-2.4336,-2.4349,-2.4353,-2.4354,-2.4367,-2.4359,-2.436,-2.436,-2.4361,-2.4388,-2.4388,0,0,0,0,0,0,-2.4295,-2.4298,-2.4322,-2.4323,-2.4309,-2.4322,-2.4324,-2.433,-2.4341,-2.4342,-2.4336,-2.4336,-2.4351,-2.4353,-2.4354,-2.4366,-2.436,-2.4361,-2.4361,-2.4388,-2.4388,-2.4388,0,0,0,0,0,0,-2.4294,-2.4297,-2.4322,-2.4311,-2.4314,-2.4323,-2.4329,-2.4331,-2.4335,-2.4343,-2.4344,-2.4338,-2.4351,-2.4353,-2.4363,-2.4366,-2.4361,-2.4362,-2.4387,-2.4388,-2.4388,-2.4388,0,0,0,0,0,0,-2.4293,-2.4296,-2.43,-2.4311,-2.4315,-2.433,-2.4329,-2.4331,-2.4336,-2.4337,-2.4346,-2.4347,-2.4351,-2.4362,-2.4364,-2.4367,-2.4362,-2.4387,-2.4388,-2.4388,-2.4388,-2.4388,-2.4389,0,0,0,0,0,-2.4292,-2.4298,-2.43,-2.4303,-2.4319,-2.433,-2.4332,-2.4338,-2.4337,-2.434,-2.4346,-2.4347,-2.4366,-2.4362,-2.4365,-2.4369,-2.4387,-2.4387,-2.4388,-2.4387,-2.4388,-2.4389,0,0,0,0,0,0,-2.4286,-2.43,-2.4302,-2.4312,-2.432,-2.4331,-2.4335,-2.4338,-2.4345,-2.4345,-2.4351,-2.4353,-2.4362,-2.4366,-2.4363,-2.4378,-2.4376,-2.4377,-2.4375,-2.4376,-2.4376,-2.4375,-2.4363,0,0,0,0,0,-2.4286,-2.4295,-2.4306,-2.4314,-2.4318,-2.4326,-2.4331,-2.4335,-2.4343,-2.4346,-2.4352,-2.4359,-2.4367,-2.4371,-2.4379,-2.4388,-2.4391,-2.4392,-2.4393,-2.4393,-2.4394,-2.44,-2.4401,-2.439,-2.439,-2.439,0,0,-2.4286,-2.4295,-2.4299,-2.4313,-2.432,-2.4328,-2.4329,-2.4337,-2.4343,-2.4347,-2.4356,-2.4361,-2.437,-2.438,-2.4384,-2.4383,-2.4398,-2.4394,-2.4394,-2.4395,-2.4401,-2.4402,-2.4403,-2.439,-2.439,-2.439,0,0,-2.429,-2.4297,-2.4306,-2.4313,-2.4323,-2.4329,-2.4331,-2.4342,-2.4346,-2.4356,-2.4359,-2.4366,-2.4379,-2.4385,-2.439,-2.4399,-2.44,-2.4401,-2.4404,-2.441,-2.441,-2.4411,-2.4415,-2.4416,-2.4402,-2.4402,-2.4402,0,-2.4288,-2.4302,-2.4309,-2.4318,-2.4324,-2.4329,-2.4338,-2.4344,-2.4356,-2.436,-2.4359,-2.4376,-2.4382,-2.4394,-2.4396,-2.44,-2.4402,-2.44,-2.441,-2.4411,-2.4412,-2.4415,-2.4416,-2.4402,-2.4402,-2.4402,-2.4402,0,-2.4299,-2.4309,-2.4314,-2.4327,-2.4334,-2.4342,-2.4351,-2.4356,-2.436,-2.4366,-2.4377,-2.4384,-2.4394,-2.4397,-2.44,-2.4409,-2.4409,-2.4409,-2.4407,-2.4413,-2.4416,-2.4417,-2.4402,-2.4402,-2.4402,-2.4402,0,0,-2.4298,-2.4318,-2.4319,-2.4326,-2.4339,-2.4346,-2.4355,-2.4366,-2.4371,-2.4379,-2.4387,-2.4399,-2.44,-2.4405,-2.4409,-2.4414,-2.4421,-2.4414,-2.4414,-2.4415,-2.4433,-2.4432,-2.4434,-2.4422,-2.4423,-2.4423,-2.4432,0,-2.4304,-2.4322,-2.433,-2.4343,-2.4352,-2.4358,-2.4366,-2.4375,-2.4381,-2.4389,-2.4395,-2.4403,-2.4404,-2.4407,-2.4413,-2.4419,-2.4425,-2.4419,-2.4429,-2.4429,-2.4427,-2.4435,-2.4435,-2.4443,-2.4433,-2.4433,-2.4434,0,-2.4313,-2.4324,-2.4338,-2.4352,-2.4356,-2.4363,-2.4374,-2.4382,-2.4392,-2.4396,-2.4404,-2.4408,-2.4417,-2.4415,-2.4428,-2.4424,-2.4429,-2.4433,-2.4433,-2.4434,-2.4431,-2.4436,-2.4445,-2.4446,-2.4436,-2.4435,-2.4435,0,-2.4311,-2.4329,-2.4341,-2.4346,-2.4362,-2.4367,-2.4374,-2.4384,-2.4391,-2.44,-2.4404,-2.4414,-2.442,-2.4427,-2.4434,-2.4432,-2.4446,-2.4445,-2.4449,-2.4449,-2.4452,-2.4451,-2.4462,-2.4455,-2.4455,-2.4455,-2.4455,0,-2.4317,-2.4326,-2.4341,-2.4348,-2.4358,-2.4367,-2.4377,-2.4384,-2.4393,-2.4401,-2.4407,-2.4414,-2.4423,-2.4431,-2.4436,-2.4447,-2.4449,-2.4452,-2.4453,-2.4452,-2.4451,-2.4454,-2.4454,-2.4455,-2.4455,-2.4455,-2.4455,0,-2.4316,-2.4327,-2.434,-2.4355,-2.4359,-2.4366,-2.4378,-2.4385,-2.4393,-2.4403,-2.4406,-2.4416,-2.4427,-2.4434,-2.4447,-2.4451,-2.4462,-2.4463,-2.4459,-2.4459,-2.4464,-2.4463,-2.4476,-2.4478,-2.447,-2.447,-2.4471,0,-2.4319,-2.4327,-2.4343,-2.435,-2.4357,-2.4368,-2.4375,-2.4384,-2.4391,-2.4405,-2.441,-2.4421,-2.443,-2.4447,-2.4455,-2.4465,-2.4466,-2.447,-2.4468,-2.4466,-2.4467,-2.4466,-2.4467,-2.447,-2.447,-2.447,-2.4471,0,-2.4323,-2.4328,-2.4339,-2.4353,-2.4362,-2.4372,-2.4382,-2.4387,-2.4398,-2.4406,-2.4418,-2.4425,-2.4439,-2.445,-2.4462,-2.4468,-2.4471,-2.4472,-2.4473,-2.4471,-2.4468,-2.447,-2.4459,-2.4471,-2.4471,-2.4471,-2.4471,-2.4471,-2.4324,-2.4332,-2.4345,-2.4357,-2.4367,-2.4377,-2.4385,-2.4394,-2.4404,-2.4417,-2.4422,-2.4434,-2.4445,-2.4461,-2.4467,-2.4476,-2.4476,-2.4478,-2.4479,-2.4479,-2.4479,-2.4468,-2.4478,-2.4478,-2.4478,-2.4478,-2.4478,0,-2.4328,-2.4338,-2.4349,-2.4365,-2.4375,-2.4379,-2.4391,-2.4399,-2.441,-2.442,-2.443,-2.4444,-2.4455,-2.4465,-2.4476,-2.4481,-2.4483,-2.4484,-2.4483,-2.4485,-2.4478,-2.4476,-2.4482,-2.4482,-2.4482,-2.4482,-2.4482,-2.4482,-2.4332,-2.4345,-2.4352,-2.437,-2.4379,-2.4392,-2.4399,-2.4408,-2.4417,-2.4432,-2.4442,-2.4449,-2.446,-2.4472,-2.4482,-2.4485,-2.4489,-2.4489,-2.4492,-2.4486,-2.4485,-2.4485,-2.4482,-2.449,-2.449,-2.4498,-2.4498,-2.4498]}]]